SCP
0 0 0 0 0 0 0 0 0 0 0 0 0 0 0 0 0 0 0 0 0 0 0 0 0 0 0 0 0 0 0 0 0 0 0 0 0 0 0 0 0 0 0
-0 0 0 0 0 0 0 0 0 0 0 0 0 0 0 0 0 0 0 0 0 -0 0 0 0 -0 0 0 0 0 0 0 0 -0 0 0 0 0 0 0 0 0 0
0 0 0 0 0 0 0 0 0 0 0 0 0 0 0 0 0 0 0 0 0 0 0 0 0 0 0 0 0 0 0 0 0 0 -0 0 0 0 0 0 0 0 0
0 0 0 0 0 0 0 0 0 0 0 0 0 0 0 0 0 0 0 0 0 0 0 0 0 -0 -0 0 0 0 0 0 0 0 -0 -0 0 0 0 0 0 0 0
0 0 0 0 0 0 0 0 0 0 0 0 0 0 0 0 0 0 0 0 0 0 0 0 0 -0 0 -0 -0 0 0 0 0 0 0 -0 -0 0 0 0 0 0 0
0 0 0 0 0 0 0 0 0 0 0 0 0 0 0 0 0 0 0 0 0 0 0 0 0 0 0 0 0 0 -0 -0 0 0 0 0 0 0 0 0 0 0 0
0 0 0 0 0 0 0 -0 -0 0 0 0 0 0 0 0 0 0 0 0 0 0 -0 0 0 0 0 0 0 0 0 0 0 0 0 -0 -0 0 0 0 0 0 0
0 0 0 0 0 0 0 0 -0 0 0 0 0 0 0 0 0 0 0 0 0 0 -0 -0 -0 -0 0 0 0 0 0 0 0 0 0 0 0 0 0 0 0 0 0
0 0 0 0 0 0 0 -0 -0 0 0 0 0 0 0 0 0 0 0 0 0 0 0 -0 0 0 0 0 0 0 0 0 0 0 0 0 0 -0 0 0 0 0 0
0 0 0 0 0 0 0 0 -0 -0 -0 0 0 0 0 0 0 0 0 0 0 0 0 0 0 0 0 0 0 0 0 0 0 0 0 0 0 0 0 0 0 0 0
0 0 0 0 0 0 0 0 0 0 -0 0 0 0 0 0 0 0 0 0 0 0 0 0 0 0 0 0 0 0 0 0 0 0 0 0 0 0 0 0 0 0 0
0 0 0 0 0 0 0 0 0 0 0 -0 0 0 0 0 0 0 0 0 0 0 0 0 0 0 0 0 0 0 0 0 0 0 0 0 0 0 0 0 0 0 0
0 0 0 0 0 0 0 0 0 0 0 -0 -0 0 0 0 0 0 0 0 0 0 0 0 0 0 0 0 0 0 0 0 0 0 0 0 0 0 0 0 0 0 0
0 0 0 0 0 0 0 0 0 0 0 0 0 0 0 0 0 0 0 0 0 0 0 0 0 0 0 0 0 0 0 0 0 0 0 0 0 0 0 0 0 0 0
0 0 0 0 0 0 0 0 0 0 0 0 0 0 0 0 0 0 0 0 0 0 0 0 0 0 0 0 0 0 0 0 0 0 0 0 0 0 0 0 0 0 0
0 0 0 0 0 0 0 0 0 0 0 0 0 0 0 0 0 0 0 0 0 0 0 0 0 0 0 0 0 0 0 0 0 0 0 0 0 0 0 0 0 0 0
0 0 0 0 0 0 0 0 0 0 0 0 0 0 0 0 0 0 0 0 0 0 0 0 0 0 0 0 0 0 0 0 0 0 0 0 0 0 0 0 0 0 0
0 0 0 0 0 0 0 0 0 0 0 0 0 0 0 0 0 0 0 0 0 0 0 0 0 0 0 0 0 0 0 0 0 0 0 0 0 0 0 0 0 0 0
0 0 0 0 0 0 0 0 0 0 0 0 0 0 0 0 0 0 0 0 0 0 0 0 0 0 0 0 0 0 0 0 0 -0 0 -0 -0 -0 0 0 0 0 0
0 0 0 0 0 0 0 0 0 0 0 0 0 0 0 0 0 0 0 0 0 0 0 0 0 0 0 0 0 0 0 0 0 0 0 0 0 0 0 0 0 0 0
0 0 0 0 0 0 0 0 0 0 0 0 0 0 0 0 0 0 0 0 0 0 0 0 0 0 0 0 0 0 0 0 0 0 0 0 0 0 0 0 0 0 0
0 0 0 0 0 0 0 0 0 0 0 0 0 0 0 0 0 0 0 0 0 0 0 0 0 0 0 0 0 0 0 0 0 0 0 0 0 0 0 0 0 0 0
0 0 0 0 0 0 0 0 0 0 0 0 0 0 0 0 0 0 0 0 0 0 0 0 0 0 0 0 0 0 0 0 0 0 0 0 0 0 0 0 0 -0 -0
0 0 0 0 0 0 0 0 0 0 0 -0 0 0 0 0 0 0 0 0 0 0 0 0 0 0 0 0 0 0 0 0 0 0 0 0 0 0 0 0 0 0 0
0 0 0 0 0 0 0 0 0 -0 -0 -0 0 0 0 0 0 0 0 0 0 0 0 0 0 0 0 0 0 0 0 0 0 0 0 0 0 0 0 0 0 0 0
0 0 0 0 0 0 0 0 0 -0 -0 0 0 0 0 0 0 0 0 0 0 0 0 0 0 0 0 0 0 0 0 0 0 0 0 0 0 0 0 0 0 0 0
Wind_Speed_500mb
26 25 22 26 28 28 30 32 34 36 40 51 52 54 54 52 52 51 50 50 48 46 42 36 37 36 35 31 22 21 22 25 38 44 44 44 28 8 11 10 4 7 12
27 24 23 23 25 29 32 33 34 32 34 42 50 48 49 49 49 51 52 53 51 50 45 39 34 34 31 29 23 17 17 18 29 46 50 42 14 11 12 4 11 16 21
22 20 20 25 30 34 37 34 36 30 32 36 40 44 44 47 50 52 51 50 51 56 51 39 40 39 32 26 22 18 16 21 27 39 46 34 11 10 5 12 15 12 10
17 18 22 30 35 36 35 36 37 31 31 31 33 37 41 44 44 47 51 53 53 55 57 53 42 42 41 26 19 18 19 23 33 43 44 28 12 8 8 5 8 10 13
17 20 27 31 31 35 39 41 37 30 23 28 29 30 35 39 43 47 48 48 52 55 58 58 58 50 35 31 23 19 23 31 34 35 31 17 9 5 6 12 7 8 7
15 20 23 27 31 39 49 46 33 25 23 26 26 30 38 36 35 42 44 44 45 50 55 55 58 49 50 46 31 23 24 25 29 30 27 18 5 7 9 12 9 9 4
13 15 20 23 28 39 50 52 35 29 28 23 26 30 38 40 32 31 39 41 37 41 47 52 53 52 45 35 38 42 40 35 36 33 29 24 14 7 9 17 18 15 9
11 13 20 21 25 33 45 55 47 28 27 26 33 41 43 41 32 26 32 33 33 40 46 47 51 53 49 46 27 32 36 41 44 42 40 40 25 14 7 13 17 15 11
14 18 17 19 23 29 37 49 54 42 34 36 38 36 29 31 33 21 27 32 31 37 38 45 42 40 46 37 31 30 32 37 39 37 38 40 38 27 17 11 4 6 8
16 18 19 19 20 26 32 37 46 52 48 40 26 23 26 30 31 26 20 30 29 32 34 37 36 35 37 33 30 27 27 27 28 30 33 36 39 37 35 19 15 9 20
12 14 15 21 23 23 29 30 36 46 53 38 28 25 29 32 36 35 31 29 35 39 36 34 34 36 34 31 28 24 22 19 16 19 21 25 26 29 29 34 24 14 14
11 15 18 21 23 22 26 26 28 37 47 50 35 36 37 36 37 39 37 36 33 34 35 35 34 35 33 30 26 25 21 19 19 19 20 19 20 21 20 21 21 18 14
9 15 18 20 20 23 25 26 26 30 39 44 46 40 42 42 41 39 38 36 34 35 36 35 32 31 29 28 25 24 22 20 18 18 17 18 20 19 16 11 10 12 10
11 16 20 19 22 25 25 25 28 24 31 37 36 41 42 45 48 48 45 41 36 33 34 35 37 35 32 29 25 21 20 19 21 21 18 16 16 14 15 13 10 8 6
13 18 17 20 22 25 28 25 28 20 26 33 36 38 44 46 52 52 49 48 46 43 40 42 41 39 37 38 35 29 24 19 17 17 16 16 16 16 17 14 10 6 11
14 17 22 21 21 23 24 26 28 25 24 28 29 32 40 42 44 47 46 42 41 40 42 45 47 49 44 51 46 40 30 25 22 19 16 15 14 14 17 17 10 6 4
18 19 19 22 21 26 27 27 26 25 24 26 27 29 40 43 44 48 45 43 40 40 42 46 51 46 35 51 38 34 33 29 25 19 15 13 11 9 13 13 10 7 5
20 12 20 21 25 21 28 30 28 26 25 26 32 34 38 43 42 44 44 45 47 46 47 50 45 37 43 35 41 31 31 27 23 19 13 11 10 10 9 11 11 12 8
14 19 21 22 22 23 22 28 31 27 21 29 38 37 37 41 43 43 46 50 54 54 45 45 38 42 38 36 40 28 27 25 25 21 12 11 12 10 8 12 11 12 12
20 21 23 22 24 26 24 28 29 22 25 36 40 42 46 44 51 55 57 59 52 46 43 43 36 42 33 30 32 24 24 22 23 24 11 9 11 11 8 11 13 14 12
21 19 25 21 27 29 31 31 22 22 33 38 39 46 44 46 55 62 61 48 51 37 50 33 43 36 34 30 27 22 22 22 20 17 10 9 10 9 9 14 14 14 13
26 26 27 27 27 30 33 24 23 31 37 39 43 46 47 51 60 58 54 45 45 40 41 40 38 35 32 30 28 25 22 20 16 10 9 10 11 10 13 15 15 15 13
25 24 23 23 27 31 29 29 32 34 34 39 40 44 50 57 60 51 47 47 46 46 43 42 42 39 34 31 27 25 21 17 12 10 12 13 12 13 14 15 17 19 14
23 19 17 20 25 29 33 33 30 30 33 35 39 43 51 55 51 45 45 46 47 45 42 42 44 44 41 37 34 32 26 23 20 19 17 17 17 14 15 18 19 14 17
21 16 16 20 25 34 33 33 30 32 35 39 40 45 49 51 44 41 43 44 44 41 38 39 41 42 39 35 32 30 26 22 20 20 20 21 21 19 20 22 19 19 19
18 16 17 21 27 32 33 33 33 34 38 39 43 45 47 46 40 38 40 42 42 40 37 36 37 37 36 34 31 28 24 24 24 21 18 18 22 22 22 21 23 19 19
Wind_Direction_500mb
353 1 6 5 8 6 5 7 10 14 7 9 7 5 8 11 12 10 8 2 358 352 348 341 342 337 337 332 315 299 286 279 282 304 309 323 318 304 354 348 19 115 169
16 11 5 10 5 357 355 352 351 354 357 1 4 2 8 13 13 14 13 18 15 8 358 355 344 346 346 347 333 320 302 293 291 301 320 331 297 299 354 79 127 98 111
25 19 11 5 359 355 350 346 344 344 346 351 2 1 10 12 16 17 16 15 20 22 15 11 7 360 346 340 340 334 315 305 307 308 325 337 276 326 322 122 119 120 131
30 21 11 9 357 352 350 344 342 338 339 346 358 4 6 6 10 13 17 21 26 28 27 26 23 9 4 354 346 344 330 325 327 327 324 325 223 228 268 202 142 137 126
28 21 14 1 8 3 354 343 331 327 331 337 343 356 357 360 9 4 8 10 17 25 29 29 28 28 19 10 3 347 328 324 330 334 356 32 169 255 224 230 188 163 131
21 20 19 18 14 8 4 359 356 351 339 335 333 340 351 347 358 0 3 3 12 16 18 21 24 26 31 34 29 18 9 6 4 11 14 31 50 286 269 241 233 225 215
28 24 5 2 9 12 10 9 1 351 350 340 334 336 338 343 338 350 355 357 3 8 11 10 13 13 17 27 35 43 52 54 49 37 34 25 10 332 255 259 262 253 248
26 12 0 359 11 11 11 13 12 3 1 345 336 332 333 334 340 346 345 348 2 11 5 1 6 4 7 13 15 27 33 34 38 41 42 40 24 9 298 260 253 254 239
17 6 354 6 13 11 10 14 19 15 357 340 336 343 356 356 354 2 359 352 354 357 355 356 359 5 3 5 17 25 27 28 24 29 29 31 31 37 45 43 85 205 168
8 359 7 10 12 9 6 8 13 14 9 0 2 7 359 358 358 357 347 352 354 353 355 354 359 6 5 356 355 9 17 25 26 19 25 26 22 23 39 48 58 94 134
349 345 351 10 13 10 1 360 5 10 14 17 16 9 9 15 22 14 3 353 351 351 352 355 357 355 353 355 354 355 4 0 14 7 11 18 25 27 15 23 43 52 70
329 338 345 1 10 9 0 354 356 3 14 24 24 28 25 24 22 20 16 9 2 359 1 1 357 355 350 349 349 346 343 344 344 348 351 359 3 11 16 13 25 35 35
336 349 350 3 359 356 354 351 348 354 8 17 23 22 18 19 18 14 12 6 1 358 357 355 352 346 341 343 340 340 344 341 346 346 353 357 359 356 346 348 338 353 7
3 346 359 3 359 355 350 356 352 347 3 12 12 14 10 9 9 10 8 5 2 356 350 350 349 348 349 347 345 346 346 347 349 348 352 344 337 336 344 338 326 303 306
2 356 357 356 1 8 2 358 359 358 0 8 11 10 3 2 2 0 358 353 353 352 350 348 346 343 348 351 349 351 351 349 354 350 344 344 343 346 352 346 335 334 263
345 349 356 349 355 355 353 4 13 12 360 5 6 3 4 354 352 353 352 351 353 356 359 356 354 352 356 356 354 350 348 346 348 346 344 343 346 352 353 358 349 345 279
346 351 352 353 349 3 354 345 343 354 354 358 353 350 355 352 353 354 351 354 355 348 347 348 349 348 345 349 345 343 341 339 337 337 336 336 340 340 344 354 3 355 341
350 360 345 347 353 348 355 353 355 346 345 351 354 349 348 347 351 352 348 347 347 347 349 347 339 342 339 341 343 339 339 342 342 344 340 333 330 335 336 342 347 353 334
356 341 346 344 343 346 335 347 356 350 344 347 347 346 347 345 351 357 350 346 345 345 343 344 336 341 349 334 343 343 340 345 345 344 345 350 347 338 321 340 350 359 358
335 327 341 336 339 343 343 345 354 353 347 348 349 350 349 356 359 354 350 349 345 342 336 348 339 340 343 339 345 344 345 348 348 350 1 349 350 345 351 350 350 350 350
345 333 335 335 338 346 347 351 355 351 350 352 353 352 357 2 353 352 351 350 348 353 344 355 342 357 353 356 354 353 349 346 344 349 1 359 358 4 2 358 356 357 357
342 337 332 337 346 351 354 1 358 351 350 353 354 358 6 358 354 355 354 359 3 2 0 2 4 7 7 6 2 357 354 349 350 356 13 16 17 20 3 8 13 3 359
340 330 327 335 352 1 4 358 352 351 355 360 2 2 1 356 356 1 8 10 14 16 19 18 15 17 17 16 14 9 9 12 27 49 45 47 35 21 29 23 4 1 358
342 333 339 349 358 1 356 351 357 6 1 359 2 4 359 357 2 11 16 19 21 22 22 25 28 30 33 36 38 39 47 52 59 64 54 38 38 35 18 2 358 4 356
346 344 352 0 4 5 18 19 13 6 2 5 9 4 0 359 9 16 19 21 21 19 20 22 25 25 24 27 29 33 37 40 42 46 47 46 23 11 7 359 3 2 353
349 347 356 358 2 7 10 9 4 1 5 14 8 5 2 2 11 15 20 22 20 21 22 23 25 26 27 29 30 33 39 44 43 43 37 27 24 19 8 8 6 11 349
Wind_Speed_850mb
26 25 22 26 28 28 30 32 34 36 40 51 52 54 54 52 52 51 50 50 48 46 42 36 37 36 35 31 22 21 22 25 38 44 44 44 28 8 11 10 4 7 12
27 24 23 23 25 29 32 33 34 32 34 42 50 48 49 49 49 51 52 53 51 50 45 39 34 34 31 29 23 17 17 18 29 46 50 42 14 11 12 4 11 16 21
22 20 20 25 30 34 37 34 36 30 32 36 40 44 44 47 50 52 51 50 51 56 51 39 40 39 32 26 22 18 16 21 27 39 46 34 11 10 5 12 15 12 10
17 18 22 30 35 36 35 36 37 31 31 31 33 37 41 44 44 47 51 53 53 55 57 53 42 42 41 26 19 18 19 23 33 43 44 28 12 8 8 5 8 10 13
17 20 27 31 31 35 39 41 37 30 23 28 29 30 35 39 43 47 48 48 52 55 58 58 58 50 35 31 23 19 23 31 34 35 31 17 9 5 6 12 7 8 7
15 20 23 27 31 39 49 46 33 25 23 26 26 30 38 36 35 42 44 44 45 50 55 55 58 49 50 46 31 23 24 25 29 30 27 18 5 7 9 12 9 9 4
13 15 20 23 28 39 50 52 35 29 28 23 26 30 38 40 32 31 39 41 37 41 47 52 53 52 45 35 38 42 40 35 36 33 29 24 14 7 9 17 18 15 9
11 13 20 21 25 33 45 55 47 28 27 26 33 41 43 41 32 26 32 33 33 40 46 47 51 53 49 46 27 32 36 41 44 42 40 40 25 14 7 13 17 15 11
14 18 17 19 23 29 37 49 54 42 34 36 38 36 29 31 33 21 27 32 31 37 38 45 42 40 46 37 31 30 32 37 39 37 38 40 38 27 17 11 4 6 8
16 18 19 19 20 26 32 37 46 52 48 40 26 23 26 30 31 26 20 30 29 32 34 37 36 35 37 33 30 27 27 27 28 30 33 36 39 37 35 19 15 9 20
12 14 15 21 23 23 29 30 36 46 53 38 28 25 29 32 36 35 31 29 35 39 36 34 34 36 34 31 28 24 22 19 16 19 21 25 26 29 29 34 24 14 14
11 15 18 21 23 22 26 26 28 37 47 50 35 36 37 36 37 39 37 36 33 34 35 35 34 35 33 30 26 25 21 19 19 19 20 19 20 21 20 21 21 18 14
9 15 18 20 20 23 25 26 26 30 39 44 46 40 42 42 41 39 38 36 34 35 36 35 32 31 29 28 25 24 22 20 18 18 17 18 20 19 16 11 10 12 10
11 16 20 19 22 25 25 25 28 24 31 37 36 41 42 45 48 48 45 41 36 33 34 35 37 35 32 29 25 21 20 19 21 21 18 16 16 14 15 13 10 8 6
13 18 17 20 22 25 28 25 28 20 26 33 36 38 44 46 52 52 49 48 46 43 40 42 41 39 37 38 35 29 24 19 17 17 16 16 16 16 17 14 10 6 11
14 17 22 21 21 23 24 26 28 25 24 28 29 32 40 42 44 47 46 42 41 40 42 45 47 49 44 51 46 40 30 25 22 19 16 15 14 14 17 17 10 6 4
18 19 19 22 21 26 27 27 26 25 24 26 27 29 40 43 44 48 45 43 40 40 42 46 51 46 35 51 38 34 33 29 25 19 15 13 11 9 13 13 10 7 5
20 12 20 21 25 21 28 30 28 26 25 26 32 34 38 43 42 44 44 45 47 46 47 50 45 37 43 35 41 31 31 27 23 19 13 11 10 10 9 11 11 12 8
14 19 21 22 22 23 22 28 31 27 21 29 38 37 37 41 43 43 46 50 54 54 45 45 38 42 38 36 40 28 27 25 25 21 12 11 12 10 8 12 11 12 12
20 21 23 22 24 26 24 28 29 22 25 36 40 42 46 44 51 55 57 59 52 46 43 43 36 42 33 30 32 24 24 22 23 24 11 9 11 11 8 11 13 14 12
21 19 25 21 27 29 31 31 22 22 33 38 39 46 44 46 55 62 61 48 51 37 50 33 43 36 34 30 27 22 22 22 20 17 10 9 10 9 9 14 14 14 13
26 26 27 27 27 30 33 24 23 31 37 39 43 46 47 51 60 58 54 45 45 40 41 40 38 35 32 30 28 25 22 20 16 10 9 10 11 10 13 15 15 15 13
25 24 23 23 27 31 29 29 32 34 34 39 40 44 50 57 60 51 47 47 46 46 43 42 42 39 34 31 27 25 21 17 12 10 12 13 12 13 14 15 17 19 14
23 19 17 20 25 29 33 33 30 30 33 35 39 43 51 55 51 45 45 46 47 45 42 42 44 44 41 37 34 32 26 23 20 19 17 17 17 14 15 18 19 14 17
21 16 16 20 25 34 33 33 30 32 35 39 40 45 49 51 44 41 43 44 44 41 38 39 41 42 39 35 32 30 26 22 20 20 20 21 21 19 20 22 19 19 19
18 16 17 21 27 32 33 33 33 34 38 39 43 45 47 46 40 38 40 42 42 40 37 36 37 37 36 34 31 28 24 24 24 21 18 18 22 22 22 21 23 19 19
Wind_Direction_850mb
353 1 6 5 8 6 5 7 10 14 7 9 7 5 8 11 12 10 8 2 358 352 348 341 342 337 337 332 315 299 286 279 282 304 309 323 318 304 354 348 19 115 169
16 11 5 10 5 357 355 352 351 354 357 1 4 2 8 13 13 14 13 18 15 8 358 355 344 346 346 347 333 320 302 293 291 301 320 331 297 299 354 79 127 98 111
25 19 11 5 359 355 350 346 344 344 346 351 2 1 10 12 16 17 16 15 20 22 15 11 7 360 346 340 340 334 315 305 307 308 325 337 276 326 322 122 119 120 131
30 21 11 9 357 352 350 344 342 338 339 346 358 4 6 6 10 13 17 21 26 28 27 26 23 9 4 354 346 344 330 325 327 327 324 325 223 228 268 202 142 137 126
28 21 14 1 8 3 354 343 331 327 331 337 343 356 357 360 9 4 8 10 17 25 29 29 28 28 19 10 3 347 328 324 330 334 356 32 169 255 224 230 188 163 131
21 20 19 18 14 8 4 359 356 351 339 335 333 340 351 347 358 0 3 3 12 16 18 21 24 26 31 34 29 18 9 6 4 11 14 31 50 286 269 241 233 225 215
28 24 5 2 9 12 10 9 1 351 350 340 334 336 338 343 338 350 355 357 3 8 11 10 13 13 17 27 35 43 52 54 49 37 34 25 10 332 255 259 262 253 248
26 12 0 359 11 11 11 13 12 3 1 345 336 332 333 334 340 346 345 348 2 11 5 1 6 4 7 13 15 27 33 34 38 41 42 40 24 9 298 260 253 254 239
17 6 354 6 13 11 10 14 19 15 357 340 336 343 356 356 354 2 359 352 354 357 355 356 359 5 3 5 17 25 27 28 24 29 29 31 31 37 45 43 85 205 168
8 359 7 10 12 9 6 8 13 14 9 0 2 7 359 358 358 357 347 352 354 353 355 354 359 6 5 356 355 9 17 25 26 19 25 26 22 23 39 48 58 94 134
349 345 351 10 13 10 1 360 5 10 14 17 16 9 9 15 22 14 3 353 351 351 352 355 357 355 353 355 354 355 4 0 14 7 11 18 25 27 15 23 43 52 70
329 338 345 1 10 9 0 354 356 3 14 24 24 28 25 24 22 20 16 9 2 359 1 1 357 355 350 349 349 346 343 344 344 348 351 359 3 11 16 13 25 35 35
336 349 350 3 359 356 354 351 348 354 8 17 23 22 18 19 18 14 12 6 1 358 357 355 352 346 341 343 340 340 344 341 346 346 353 357 359 356 346 348 338 353 7
3 346 359 3 359 355 350 356 352 347 3 12 12 14 10 9 9 10 8 5 2 356 350 350 349 348 349 347 345 346 346 347 349 348 352 344 337 336 344 338 326 303 306
2 356 357 356 1 8 2 358 359 358 0 8 11 10 3 2 2 0 358 353 353 352 350 348 346 343 348 351 349 351 351 349 354 350 344 344 343 346 352 346 335 334 263
345 349 356 349 355 355 353 4 13 12 360 5 6 3 4 354 352 353 352 351 353 356 359 356 354 352 356 356 354 350 348 346 348 346 344 343 346 352 353 358 349 345 279
346 351 352 353 349 3 354 345 343 354 354 358 353 350 355 352 353 354 351 354 355 348 347 348 349 348 345 349 345 343 341 339 337 337 336 336 340 340 344 354 3 355 341
350 360 345 347 353 348 355 353 355 346 345 351 354 349 348 347 351 352 348 347 347 347 349 347 339 342 339 341 343 339 339 342 342 344 340 333 330 335 336 342 347 353 334
356 341 346 344 343 346 335 347 356 350 344 347 347 346 347 345 351 357 350 346 345 345 343 344 336 341 349 334 343 343 340 345 345 344 345 350 347 338 321 340 350 359 358
335 327 341 336 339 343 343 345 354 353 347 348 349 350 349 356 359 354 350 349 345 342 336 348 339 340 343 339 345 344 345 348 348 350 1 349 350 345 351 350 350 350 350
345 333 335 335 338 346 347 351 355 351 350 352 353 352 357 2 353 352 351 350 348 353 344 355 342 357 353 356 354 353 349 346 344 349 1 359 358 4 2 358 356 357 357
342 337 332 337 346 351 354 1 358 351 350 353 354 358 6 358 354 355 354 359 3 2 0 2 4 7 7 6 2 357 354 349 350 356 13 16 17 20 3 8 13 3 359
340 330 327 335 352 1 4 358 352 351 355 360 2 2 1 356 356 1 8 10 14 16 19 18 15 17 17 16 14 9 9 12 27 49 45 47 35 21 29 23 4 1 358
342 333 339 349 358 1 356 351 357 6 1 359 2 4 359 357 2 11 16 19 21 22 22 25 28 30 33 36 38 39 47 52 59 64 54 38 38 35 18 2 358 4 356
346 344 352 0 4 5 18 19 13 6 2 5 9 4 0 359 9 16 19 21 21 19 20 22 25 25 24 27 29 33 37 40 42 46 47 46 23 11 7 359 3 2 353
349 347 356 358 2 7 10 9 4 1 5 14 8 5 2 2 11 15 20 22 20 21 22 23 25 26 27 29 30 33 39 44 43 43 37 27 24 19 8 8 6 11 349